Find Starlink 6369

NORAD ID: 57374 Int'l Des: 2023-099 Owner: SPXS Country: US Constellation: starlink operational
LEOCIRCULAR

实时位置

正在加载3D地球...

关于 Starlink 6369

正在加载描述...

即将过境

Passes for default location (London). Set your location on the main map for personalized predictions.

高度历史

Loading altitude history...

两行轨道根数

1 57374U 23099AY 26127.71165191 .00001518 00000-0 64697-4 0 9999
2 57374 43.0027 250.4302 0001276 275.6091 84.4615 15.27573229155435
Epoch: May 7, 2026 • Age: 7 hours

当前状态

高度 495.3 km
速度 7.62 km/s
星下点 -42.47°S, 63.27°W
发射日期 Jul 16, 2023
运行时间 2.8 years
类型 internet

技术详情

分类 Payload
质量 305.00 kg
干质量 290.00 kg
总质量 305.00 kg
长度 0.20 m
直径 2.80 m
跨度 9.00 m
形状 Box + pan
制造商 SPXS
平台类型 Starlink
阶段状态 In Orbit
所有者/国家 SPXS/US

Most Searched